Location: Dobrzeń Wielki
(50.7693°N, 17.8414°E)
Time: 15:07:55
(UTC+02:00)

N. Korean satellite - Visible Passes

Search period start: 21 October 2019 00:00
Search period end: 30 October 2019 23:00
Orbit: 455 x 508 km, 97.2° (Epoch: 20 October)

Date Brightness Start Highest point End Pass type
(mag) Time Alt. Az. Time Alt. Az. Time Alt. Az.
21 Oct 8.5 06:21:58 10° NNE 06:25:20 35° E 06:28:44 10° SSE visible
21 Oct 9.3 18:36:04 10° SSW 18:38:52 23° W 18:41:44 10° NW visible
22 Oct 9.7 05:57:10 10° NE 05:59:53 20° E 06:02:37 10° SE visible
23 Oct 10.4 05:33:18 10° ENE 05:34:20 11° E 05:35:22 10° ESE visible
24 Oct 7.4 06:39:16 10° NNE 06:42:52 57° E 06:46:30 10° S visible
24 Oct 10.0 18:54:19 10° SW 18:56:28 16° W 18:58:39 10° NW visible
25 Oct 8.9 06:14:12 10° NNE 06:17:28 30° E 06:20:44 10° SSE visible
25 Oct 8.9 18:27:55 10° SSW 18:30:57 28° W 18:34:03 10° NNW visible
26 Oct 9.9 05:49:31 10° NE 05:51:58 17° E 05:54:26 10° SE visible
26 Oct 7.4 18:02:07 10° S 18:05:31 56° W 18:09:00 10° NNW visible
27 Oct 6.6 05:56:39 10° NNE 06:00:20 89° WNW 06:04:03 10° SSW visible
27 Oct 10.5 18:13:42 10° W 18:14:06 10° W 18:14:29 10° W visible
28 Oct 7.9 05:31:24 10° NNE 05:34:59 47° E 05:38:34 10° S visible
28 Oct 9.7 17:45:57 10° SW 17:48:30 19° W 17:51:05 10° NW visible
29 Oct 9.2 05:06:26 10° NE 05:09:32 25° E 05:12:39 10° SSE visible
29 Oct 8.5 17:19:47 10° SSW 17:22:59 35° W 17:26:17 10° NNW visible
30 Oct 10.1 04:41:56 10° NE 04:44:00 14° E 04:46:04 10° ESE visible
